[Iaude] MPEC C169: 2024 CK5 [a=1.49,e=0.40,i=5.5,H=27.5]

mpec at cfa.harvard.edu mpec at cfa.harvard.edu
Wed Feb 14 16:18:15 EST 2024


M.P.E.C. 2024-C169                            Issued 2024 February 14, 21:16 UT

     The Minor Planet Electronic Circulars contain information on unusual
         minor planets, routine data on comets and natural satellites,
         and occasional editorial announcements.  They are published
    on behalf of Division F of the International Astronomical Union by the
          Minor Planet Center, Smithsonian Astrophysical Observatory,
                          Cambridge, MA 02138, U.S.A.
			  
             Prepared using the Tamkin Foundation Computer Network

                              MPC at CFA.HARVARD.EDU
            URL https://www.minorplanetcenter.net/    ISSN 1523-6714

                                    2024 CK5                                    


Observations:
     K24C05K  C2024 02 11.48306208 56 40.833+15 38 22.28         21.77GVEC169F52
     K24C05K  C2024 02 11.50908508 56 36.450+15 35 17.12         21.73GVEC169F52
     K24C05K  C2024 02 11.52207008 56 34.317+15 33 44.21         21.49GVEC169F52
     K24C05K* C2024 02 14.35196308 50 03.102+07 59 16.26         21.53wXEC169F51
     K24C05K  C2024 02 14.36517908 49 59.521+07 56 21.85         21.03wXEC169F51
     K24C05K  C2024 02 14.37840508 49 55.971+07 53 28.35         21.31wXEC169F51
     K24C05K  C2024 02 14.51989408 49 17.841+07 21 47.08         21.14GVEC169F51
     K24C05K  C2024 02 14.52054008 49 17.676+07 21 38.07         21.70GVEC169F51
     K24C05K  C2024 02 14.52143908 49 17.423+07 21 25.12         21.25GVEC169F51
     K24C05K  C2024 02 14.52208708 49 17.272+07 21 16.68         20.88GVEC169F51
     K24C05K KC2024 02 14.83461108 48 31.53 +06 05 57.6          20.8 GVEC169L01
     K24C05K KC2024 02 14.83673808 48 30.98 +06 05 26.8          20.8 GVEC169L01
     K24C05K KC2024 02 14.83909208 48 30.40 +06 04 52.6          20.8 GVEC169L01

Observer details:
F51 Pan-STARRS 1, Haleakala.  Observers J. Herman, T. Lowe, P. Minguez, A.
    Schultz, I. Smith.  Measurers K. Chambers, T. de Boer, J. Fairlamb, H.
    Gao, M. Huber, C.-C. Lin, E. Magnier, Y. Ramanjooloo, R. Wainscoat, R.
    Weryk.  1.8-m Ritchey-Chretien + CCD.
F52 Pan-STARRS 2, Haleakala.  Observers J. Herman, T. Lowe, P. Minguez, A.
    Schultz, I. Smith.  Measurers K. Chambers, T. de Boer, J. Fairlamb, H.
    Gao, M. Huber, C.-C. Lin, E. Magnier, Y. Ramanjooloo, R. Wainscoat, R.
    Weryk.  1.8-m Ritchey-Chretien + CCD.
L01 Visnjan Observatory, Tican.  Observer K. Korlevic.  1.0-m f/2.9 reflector
    + CCD.

Orbital elements:
2024 CK5                                                 Earth MOID = 0.0183 AU
Epoch 2023 Sept. 13.0 TT = JDT 2460200.5                MPC                     
M 251.35976              (2000.0)            P               Q                  
n   0.54461915     Peri.  240.19874     -0.93279357     +0.35527281             
a   1.4850490      Node   320.52315     -0.28890911     -0.83766790             
e   0.3964224      Incl.    5.47337     -0.21547083     -0.41484181             
P   1.81           H   27.50          G   0.15           U   8                  
Residuals in seconds of arc
240211 F52  0.1+  0.4-    240214 F51  0.1+  1.0-    240214 L01  0.3-  0.5-
240211 F52  0.1-  0.0     240214 F51  0.1+  0.4+    240214 L01  0.2-  0.0
240211 F52  0.1-  0.4+    240214 F51  0.1+  0.3+    240214 L01  0.3+  0.5+
240214 F51  0.6+  1.0+    240214 F51  0.2-  0.3-
240214 F51  0.1-  0.9-    240214 F51  0.0   0.2+

Ephemeris:
2024 CK5                 a,e,i = 1.49, 0.40, 5                   q = 0.8963
Date    TT    R. A. (2000) Decl.     Delta      r    Elong.  Phase     V
2024 01 15    09 08 54.3 +28 30 13   0.2276  1.1993   159.4    16.8    25.6
...
2024 01 30    09 08 05.2 +26 06 59   0.1267  1.1101   170.4     8.5    23.8
...
2024 02 07    09 02 51.3 +21 38 36   0.07949 1.0651   172.8     6.6    22.6
...
2024 02 13    08 53 36.3 +12 12 09   0.04694 1.0331   167.9    11.6    21.6
2024 02 14    08 51 01.1 +09 13 41   0.04187 1.0280   165.7    13.7    21.5
2024 02 15    08 47 51.3 +05 27 10   0.03697 1.0229   162.7    16.7    21.3
...
2024 02 21    07 35 36.7 -56 05 09   0.01877 0.9939   105.3    73.6    21.4
...
2024 02 29    21 52 14.5 -56 23 58   0.04881 0.9596    49.5   128.3    26.4
...
2024 03 15    21 31 47.3 -40 57 13   0.1303  0.9131    48.4   125.5    28.2

A. U. Tomatic                (C) Copyright 2024 MPC           M.P.E.C. 2024-C169





More information about the Iaude mailing list